Outer Banks, North Carolina, United States
Lat: 35.98N, Lon: 75.65W
Wx Zone: NCZ103
Local Info
Past Weather Observations for Today

NOTE: This archive is for the closest National Weather Service station to Outer Banks. Information may differ from the station used for current weather conditions.

Click here for Long-term Archive

Time Weather Temperature Dewpoint Humidity Pressure Winds Precip Visibility
08:35
Overcast
Drizzle
61°F / 16°C 61°F / 16°C 100% 29.74 in
(1007 mb)
WNW 4.6 mph
(WNW 7 kph)
0.01 in
(0.25 mm)
2SM
08:15
Overcast
Light Rain
61°F / 16°C 61°F / 16°C 100% 29.74 in
(1007 mb)
Calm 0.01 in
(0.25 mm)
3SM
07:55
Overcast
Rain
61°F / 16°C 61°F / 16°C 100% 29.77 in
(1008 mb)
NNW 8.1 mph
(NNW 13 kph)
0.12 in
(3.05 mm)
1 3/4SM
07:35
Overcast
Fog And Mist
61°F / 16°C 61°F / 16°C 100% 29.77 in
(1008 mb)
N 4.6 mph
(N 7 kph)
0.04 in
(1.02 mm)
4SM
07:15
Overcast
Light Rain
63°F / 17°C 63°F / 17°C 100% 29.8 in
(1009 mb)
W 3.5 mph
(W 6 kph)
0.04 in
(1.02 mm)
3SM
06:55
Overcast
Drizzle
63°F / 17°C 61°F / 16°C 94% 29.8 in
(1009 mb)
SSW 6.9 mph
(SSW 11 kph)
0.02 in
(0.51 mm)
2SM
06:35
Overcast
Drizzle
63°F / 17°C 61°F / 16°C 94% 29.8 in
(1009 mb)
E 3.5 mph
(E 6 kph)
0.02 in
(0.51 mm)
2 1/2SM
06:15
Overcast
Heavy Rain
61°F / 16°C 61°F / 16°C 100% 29.83 in
(1010 mb)
E 3.5 mph
(E 6 kph)
0.01 in
(0.25 mm)
2 1/2SM
05:55
Overcast
Drizzle
63°F / 17°C 61°F / 16°C 94% 29.83 in
(1010 mb)
E 5.8 mph
(E 9 kph)
- 3SM
05:35
Overcast
Fog And Mist
61°F / 16°C 61°F / 16°C 100% 29.83 in
(1010 mb)
NE 9.2 mph
(NE 15 kph)
- 4SM
05:15
Overcast
Fog And Mist
61°F / 16°C 61°F / 16°C 100% 29.83 in
(1010 mb)
ENE 4.6 mph
(ENE 7 kph)
- 4SM
04:55
Overcast
Fog And Mist
61°F / 16°C 61°F / 16°C 100% 29.86 in
(1011 mb)
ENE 6.9 mph
(ENE 11 kph)
- 5SM
04:35
Overcast
Fog And Mist
61°F / 16°C 61°F / 16°C 100% 29.86 in
(1011 mb)
ENE 6.9 mph
(ENE 11 kph)
- 5SM
04:15
Overcast
Light Rain
61°F / 16°C 61°F / 16°C 100% 29.89 in
(1012 mb)
Calm - 5SM
03:55
Overcast
Drizzle
61°F / 16°C 61°F / 16°C 100% 29.92 in
(1013 mb)
E 4.6 mph
(E 7 kph)
0.03 in
(0.76 mm)
5SM
03:35
Overcast
Rain
61°F / 16°C 61°F / 16°C 100% 29.92 in
(1013 mb)
NE 8.1 mph
(NE 13 kph)
0.03 in
(0.76 mm)
4SM
03:15
Overcast
Rain
61°F / 16°C 59°F / 15°C 94% 29.92 in
(1013 mb)
NE 6.9 mph
(NE 11 kph)
0.01 in
(0.25 mm)
3SM
02:55
Overcast
Light Rain
61°F / 16°C 59°F / 15°C 94% 29.95 in
(1014 mb)
NE 3.5 mph
(NE 6 kph)
0.05 in
(1.27 mm)
2 1/2SM
02:35
Overcast
Rain
61°F / 16°C 59°F / 15°C 94% 29.95 in
(1014 mb)
NE 4.6 mph
(NE 7 kph)
0.04 in
(1.02 mm)
3SM
02:15
Overcast
Rain
61°F / 16°C 59°F / 15°C 94% 29.95 in
(1014 mb)
ENE 9.2 mph
(ENE 15 kph)
0.02 in
(0.51 mm)
2SM
01:55
Overcast
Rain
61°F / 16°C 59°F / 15°C 94% 29.98 in
(1015 mb)
E 10.4 mph
(E 17 kph)
0.03 in
(0.76 mm)
2 1/2SM
01:35
Overcast
Rain
59°F / 15°C 59°F / 15°C 100% 29.98 in
(1015 mb)
E 6.9 mph
(E 11 kph)
0.02 in
(0.51 mm)
1 1/2SM
01:15
Overcast
Drizzle
59°F / 15°C 59°F / 15°C 100% 30.01 in
(1016 mb)
ENE 4.6 mph
(ENE 7 kph)
- 1SM
00:55
Overcast
Light Rain
59°F / 15°C 59°F / 15°C 100% 30.01 in
(1016 mb)
NE 5.8 mph
(NE 9 kph)
0.11 in
(2.79 mm)
1SM
00:35
Overcast
Rain
59°F / 15°C 59°F / 15°C 100% 30.04 in
(1017 mb)
NE 4.6 mph
(NE 7 kph)
0.06 in
(1.52 mm)
1 1/2SM
00:15
Overcast
Rain
59°F / 15°C 59°F / 15°C 100% 30.04 in
(1017 mb)
Calm 0.01 in
(0.25 mm)
2SM
Time Weather Temperature Dewpoint Humidity Pressure Winds Precip Visibility


Weather for websites

WeatherForYou.com, LLC is not responsible for any damages or problems caused by this service. Current weather conditions are obtained from the closest station including government and personal stations which may have varying degrees of accuracy. Weather forecasts are derived from the NOAA NDFD. Like all things, this site belongs to Jesus Christ... He just trusts me to maintain it. If you have any questions or comments email webmaster@weatherforyou.com

Copyright © 2014, WeatherForYou.com LLC. All rights reserved.